�N����,����,�~����,�C��,���x,�C��,����,���ϕ���,�ő�u�ԕ���,�ő厞����,���˗�,�I�_���x,�n�����x,�ő啗���N��,DTYPE
"20/11/16","00:10",0.0,10.9,93.2,1021.3,322.7,1.3,1.7,313.8,0.00,9.9,13.8,"00:05:04",1
"20/11/16","00:20",0.0,10.7,93.2,1021.1,299.0,1.0,1.3,305.7,0.00,9.7,13.8,"00:10:48",1
"20/11/16","00:30",0.0,10.4,93.5,1021.1,310.3,1.0,1.4,306.1,0.00,9.4,13.5,"00:24:18",1
"20/11/16","00:40",0.0,10.2,93.7,1020.6,302.2,1.2,1.8,322.7,0.00,9.3,13.5,"00:38:40",1
"20/11/16","00:50",0.0,10.3,93.9,1020.6,318.1,1.5,1.8,322.1,0.00,9.4,13.3,"00:40:32",1
"20/11/16","01:00",0.0,10.0,93.9,1020.4,296.3,1.0,1.4,310.1,0.00,9.1,13.4,"00:55:04",1
"20/11/16","01:10",0.0,10.0,94.1,1020.8,302.2,0.6,1.2,286.5,0.00,9.1,13.4,"01:00:56",1
"20/11/16","01:20",0.0,10.0,94.3,1020.8,309.4,1.3,1.9,301.8,0.00,9.2,13.2,"01:18:32",1
"20/11/16","01:30",0.0,10.1,94.4,1020.6,323.3,1.6,2.0,320.0,0.00,9.3,13.2,"01:20:56",1
"20/11/16","01:40",0.0,10.2,94.7,1020.6,289.9,1.0,1.3,309.9,0.00,9.4,13.3,"01:37:12",1
"20/11/16","01:50",0.0,10.2,94.6,1021.1,291.0,0.8,1.4,305.1,0.00,9.4,13.1,"01:46:10",1
"20/11/16","02:00",0.0,10.5,94.8,1020.8,316.4,1.6,2.0,322.8,0.00,9.7,13.3,"01:53:28",1
"20/11/16","02:10",0.0,10.7,94.8,1021.1,297.1,1.0,1.9,324.9,0.00,9.9,13.1,"02:00:08",1
"20/11/16","02:20",0.0,10.8,94.9,1020.8,311.6,1.3,1.7,320.1,0.00,10.1,13.2,"02:17:48",1
"20/11/16","02:30",0.0,10.9,94.9,1020.4,303.1,1.1,1.7,308.0,0.00,10.2,13.4,"02:21:36",1
"20/11/16","02:40",0.0,10.7,94.8,1020.6,285.8,0.8,1.1,298.8,0.00,9.9,13.3,"02:39:46",1
"20/11/16","02:50",0.0,10.4,94.9,1020.6,303.4,0.8,1.6,323.2,0.00,9.7,13.1,"02:49:38",1
"20/11/16","03:00",0.0,10.2,95.0,1020.6,312.2,1.5,2.0,323.4,0.00,9.5,13.2,"02:54:24",1
"20/11/16","03:10",0.0,10.2,95.2,1020.6,306.2,1.1,1.3,320.3,0.00,9.5,13.2,"03:00:48",1
"20/11/16","03:20",0.0,10.2,95.5,1020.8,312.3,1.3,1.8,322.1,0.00,9.6,13.1,"03:19:20",1
"20/11/16","03:30",0.0,10.7,95.4,1020.6,312.6,1.1,1.9,323.6,0.00,10.0,13.1,"03:21:20",1
"20/11/16","03:40",0.0,10.8,95.4,1020.4,298.9,1.0,1.4,301.3,0.00,10.1,13.1,"03:32:56",1
"20/11/16","03:50",0.0,10.8,95.5,1020.6,293.5,0.8,1.6,318.0,0.00,10.2,13.4,"03:40:02",1
"20/11/16","04:00",0.0,11.0,95.5,1020.4,309.7,1.1,1.7,315.1,0.00,10.3,13.2,"03:58:18",1
"20/11/16","04:10",0.0,11.0,95.5,1020.6,312.4,1.3,1.6,306.2,0.00,10.3,13.1,"04:00:50",1
"20/11/16","04:20",0.0,10.8,95.6,1020.4,294.3,0.5,1.9,324.2,0.00,10.2,13.2,"04:10:24",1
"20/11/16","04:30",0.0,10.7,95.7,1020.6,315.9,0.8,1.9,323.8,0.00,10.1,13.1,"04:28:08",1
"20/11/16","04:40",0.0,10.6,95.7,1020.6,314.8,1.1,1.8,322.7,0.00,10.0,13.0,"04:32:08",1
"20/11/16","04:50",0.0,10.2,95.8,1020.6,312.0,1.1,1.6,323.3,0.00,9.6,13.1,"04:46:02",1
"20/11/16","05:00",0.0,10.0,95.9,1020.8,298.4,1.0,1.8,322.0,0.00,9.4,13.1,"04:59:58",1
"20/11/16","05:10",0.0,9.9,96.0,1020.6,306.4,1.1,1.8,345.5,0.00,9.3,12.8,"05:01:20",1
"20/11/16","05:20",0.0,9.5,96.1,1020.8,290.3,1.0,1.3,297.6,0.00,9.0,13.0,"05:17:46",1
"20/11/16","05:30",0.0,9.4,96.3,1020.6,293.6,0.8,1.6,313.9,0.00,8.9,12.8,"05:28:10",1
"20/11/16","05:40",0.0,9.3,96.4,1020.6,308.2,1.0,1.9,320.7,0.00,8.8,12.9,"05:38:50",1
"20/11/16","05:50",0.0,9.1,96.5,1020.6,303.2,1.2,1.6,323.2,0.00,8.6,12.6,"05:46:16",1
"20/11/16","06:00",0.0,9.1,96.6,1021.1,302.7,1.2,1.7,314.4,0.00,8.6,12.7,"05:54:24",1
"20/11/16","06:10",0.0,8.8,96.7,1020.8,300.8,0.8,1.2,317.5,0.00,8.3,12.7,"06:06:24",1
"20/11/16","06:20",0.0,8.7,96.8,1020.8,292.0,1.0,1.3,310.4,0.00,8.3,12.3,"06:15:20",1
"20/11/16","06:30",0.0,8.7,96.8,1021.3,294.9,1.0,1.6,320.2,0.00,8.3,12.6,"06:29:28",1
"20/11/16","06:40",0.0,8.8,96.8,1021.1,296.1,1.0,1.8,322.1,0.00,8.4,12.4,"06:30:08",1
"20/11/16","06:50",0.0,8.7,97.0,1020.8,297.2,1.0,1.2,296.3,0.00,8.3,12.5,"06:45:52",1
"20/11/16","07:00",0.0,9.0,97.0,1021.1,303.0,1.1,1.4,322.8,0.00,8.6,12.5,"06:50:48",1
"20/11/16","07:10",0.0,9.1,97.1,1021.5,301.8,1.0,1.9,323.0,0.00,8.7,12.4,"07:00:18",1
"20/11/16","07:20",0.0,9.6,97.1,1021.3,297.9,0.6,1.3,314.7,0.01,9.2,12.5,"07:18:24",1
"20/11/16","07:30",0.0,10.1,97.1,1021.3,304.8,1.2,1.6,310.3,0.01,9.7,12.4,"07:25:20",1
"20/11/16","07:40",0.0,10.6,97.1,1021.8,306.1,1.0,1.6,325.0,0.03,10.2,12.5,"07:36:40",1
"20/11/16","07:50",0.0,11.4,97.0,1021.8,314.6,0.7,1.0,316.5,0.04,11.0,12.3,"07:41:52",1
"20/11/16","08:00",0.0,11.7,96.9,1021.8,271.0,0.5,0.9,340.2,0.05,11.3,12.7,"07:50:08",1
"20/11/16","08:10",0.0,12.1,96.7,1021.8,249.0,0.5,1.0,282.1,0.05,11.6,12.7,"08:07:20",1
"20/11/16","08:20",0.0,12.6,96.6,1021.8,238.6,0.3,0.9,117.2,0.06,12.1,12.8,"08:17:28",1
"20/11/16","08:30",0.0,13.0,96.7,1022.3,180.1,0.1,0.5,100.6,0.09,12.5,13.0,"08:29:52",1
"20/11/16","08:40",0.0,13.4,96.7,1022.0,135.6,0.2,0.5,113.2,0.10,12.9,13.0,"08:30:16",1
"20/11/16","08:50",0.0,14.0,96.6,1022.3,70.2,0.3,1.3,312.5,0.14,13.5,13.2,"08:46:56",1
"20/11/16","09:00",0.0,14.4,96.5,1022.5,31.8,0.5,0.9,305.7,0.17,13.9,13.3,"08:51:52",1
"20/11/16","09:10",0.0,15.0,95.2,1022.3,193.5,0.3,1.7,228.0,0.21,14.3,13.5,"09:09:44",1
"20/11/16","09:20",0.0,14.9,95.5,1022.3,246.2,0.8,1.8,240.3,0.18,14.2,13.7,"09:10:48",1
"20/11/16","09:30",0.0,15.8,95.4,1022.3,304.6,0.2,0.8,318.7,0.19,15.1,13.8,"09:28:56",1
"20/11/16","09:40",0.0,16.3,95.1,1022.5,266.7,0.8,1.4,272.2,0.21,15.6,14.0,"09:39:44",1
"20/11/16","09:50",0.0,15.5,93.4,1022.5,252.3,0.7,1.2,245.4,0.23,14.5,13.9,"09:49:12",1
"20/11/16","10:00",0.0,16.5,94.0,1022.5,329.9,0.5,1.4,316.3,0.24,15.6,14.3,"09:53:12",1
"20/11/16","10:10",0.0,16.9,92.9,1022.5,142.3,0.3,1.3,117.2,0.27,15.8,14.6,"10:00:02",1
"20/11/16","10:20",0.0,17.0,91.9,1022.0,152.9,0.5,1.2,129.6,0.27,15.7,14.7,"10:16:24",1
"20/11/16","10:30",0.0,17.4,90.1,1021.5,207.0,0.6,1.7,214.2,0.28,15.8,14.7,"10:24:00",1
"20/11/16","10:40",0.0,17.6,86.4,1021.8,234.9,0.7,2.1,212.7,0.29,15.3,15.1,"10:36:40",1
"20/11/16","10:50",0.0,18.3,82.3,1021.3,220.8,1.0,2.1,227.7,0.29,15.3,15.1,"10:43:12",1
"20/11/16","11:00",0.0,18.6,78.7,1021.3,229.7,0.7,1.6,220.1,0.22,14.9,15.2,"10:58:40",1
"20/11/16","11:10",0.0,19.4,75.7,1021.1,161.6,0.6,2.0,224.0,0.33,15.0,15.5,"11:03:52",1
"20/11/16","11:20",0.0,19.9,73.4,1020.6,214.4,0.6,1.4,198.6,0.36,15.0,15.5,"11:10:48",1
"20/11/16","11:30",0.0,20.2,70.7,1020.4,168.8,0.6,1.3,127.7,0.39,14.8,15.7,"11:20:40",1
"20/11/16","11:40",0.0,20.6,68.4,1019.7,246.6,0.7,1.3,263.6,0.37,14.6,15.9,"11:33:36",1
"20/11/16","11:50",0.0,20.7,67.3,1019.7,178.7,0.8,1.8,129.5,0.35,14.5,16.2,"11:44:16",1
"20/11/16","12:00",0.0,20.8,67.3,1019.4,201.6,0.7,2.2,201.4,0.35,14.6,16.3,"11:57:52",1
"20/11/16","12:10",0.0,20.6,67.8,1019.0,213.4,1.7,3.6,223.6,0.36,14.5,16.4,"12:01:52",1
"20/11/16","12:20",0.0,20.9,66.2,1018.7,204.9,1.1,2.6,213.5,0.40,14.4,16.6,"12:10:02",1
"20/11/16","12:30",0.0,21.2,65.7,1019.0,181.6,1.1,2.7,104.2,0.39,14.6,16.7,"12:27:20",1
"20/11/16","12:40",0.0,21.5,64.9,1018.2,172.7,1.2,2.8,231.5,0.40,14.7,16.9,"12:32:32",1
"20/11/16","12:50",0.0,21.9,64.4,1018.0,131.3,1.0,2.4,114.5,0.39,14.9,16.9,"12:43:12",1
"20/11/16","13:00",0.0,22.1,63.8,1018.0,140.7,1.0,2.5,122.9,0.39,15.0,17.0,"12:58:24",1
"20/11/16","13:10",0.0,22.3,62.7,1017.8,156.8,1.2,3.1,113.3,0.37,14.9,17.2,"13:01:28",1
"20/11/16","13:20",0.0,22.4,62.0,1017.5,170.9,1.1,2.2,196.3,0.36,14.8,17.6,"13:10:24",1
"20/11/16","13:30",0.0,22.7,60.4,1017.5,152.4,1.0,3.1,126.5,0.35,14.7,17.9,"13:22:40",1
"20/11/16","13:40",0.0,23.2,57.8,1017.5,197.9,0.8,2.5,199.7,0.34,14.5,17.7,"13:39:52",1
"20/11/16","13:50",0.0,23.1,57.6,1017.1,206.5,1.7,3.2,219.6,0.33,14.3,18.0,"13:40:08",1
"20/11/16","14:00",0.0,23.1,55.9,1017.3,133.1,1.1,3.1,238.7,0.33,13.9,17.8,"13:56:40",1
"20/11/16","14:10",0.0,23.9,53.6,1017.1,337.9,1.0,2.7,343.7,0.32,14.0,18.0,"14:08:00",1
"20/11/16","14:20",0.0,23.6,52.3,1016.8,326.2,1.7,3.9,348.7,0.32,13.3,18.2,"14:12:24",1
"20/11/16","14:30",0.0,23.4,47.5,1017.3,292.1,1.7,4.4,317.2,0.29,11.7,18.1,"14:24:24",1
"20/11/16","14:40",0.0,23.6,47.0,1017.1,11.3,1.1,2.0,9.5,0.25,11.7,18.2,"14:35:52",1
"20/11/16","14:50",0.0,23.4,46.9,1017.1,337.2,1.7,4.4,25.0,0.22,11.5,18.0,"14:41:20",1
"20/11/16","15:00",0.0,23.5,45.6,1017.3,355.1,1.0,2.7,6.9,0.19,11.1,18.2,"14:58:00",1
"20/11/16","15:10",0.0,23.1,45.2,1017.5,349.0,1.3,2.8,335.7,0.16,10.6,18.1,"15:09:44",1
"20/11/16","15:20",0.0,22.5,46.0,1017.5,347.7,2.0,4.7,349.6,0.13,10.4,18.1,"15:16:32",1
"20/11/16","15:30",0.0,22.3,47.8,1017.5,337.1,1.5,2.8,329.8,0.10,10.7,18.0,"15:20:24",1
"20/11/16","15:40",0.0,22.0,49.1,1017.5,337.1,1.8,3.9,340.0,0.08,10.9,17.8,"15:37:12",1
"20/11/16","15:50",0.0,21.7,51.0,1017.8,337.9,1.7,3.9,327.2,0.06,11.2,17.8,"15:43:12",1
"20/11/16","16:00",0.0,21.4,51.8,1018.0,338.9,1.5,2.4,352.8,0.04,11.1,17.7,"15:55:04",1
"20/11/16","16:10",0.0,21.1,52.5,1018.2,332.1,1.3,2.5,337.5,0.02,11.1,17.5,"16:00:48",1
"20/11/16","16:20",0.0,20.7,54.6,1018.2,332.3,1.5,2.9,314.9,0.01,11.3,17.5,"16:16:00",1
"20/11/16","16:30",0.0,20.0,57.7,1018.5,344.8,2.0,4.2,345.3,0.00,11.5,17.3,"16:23:04",1
"20/11/16","16:40",0.0,19.4,60.0,1018.5,343.1,1.5,3.4,342.1,0.00,11.5,17.2,"16:36:24",1
"20/11/16","16:50",0.0,18.8,62.3,1018.2,336.3,1.5,3.4,340.6,0.00,11.5,17.1,"16:41:12",1
"20/11/16","17:00",0.0,18.1,64.9,1019.0,334.7,1.6,2.9,335.6,0.00,11.4,17.0,"16:52:08",1
"20/11/16","17:10",0.0,17.8,67.0,1019.0,331.7,2.2,4.3,322.9,0.00,11.6,16.9,"17:08:08",1
"20/11/16","17:20",0.0,17.5,68.6,1019.0,332.5,2.2,4.3,338.2,0.00,11.7,16.7,"17:17:36",1
"20/11/16","17:30",0.0,17.4,69.6,1019.0,333.4,2.5,4.2,332.8,0.00,11.8,16.7,"17:28:24",1
"20/11/16","17:40",0.0,17.2,70.4,1019.2,330.9,2.2,3.7,325.0,0.00,11.8,16.7,"17:34:56",1
"20/11/16","17:50",0.0,17.2,71.0,1019.2,327.0,2.5,4.7,335.1,0.00,11.9,16.4,"17:48:40",1
"20/11/16","18:00",0.0,17.2,71.3,1019.7,310.9,2.2,3.5,307.5,0.00,12.0,16.2,"17:50:56",1
"20/11/16","18:10",0.0,17.2,71.7,1019.7,317.2,2.2,3.5,316.7,0.00,12.1,16.3,"18:00:32",1
"20/11/16","18:20",0.0,17.0,72.2,1019.9,317.4,2.2,4.1,318.9,0.00,12.0,16.5,"18:13:36",1
"20/11/16","18:30",0.0,17.0,72.5,1020.1,317.3,2.0,3.3,309.0,0.00,12.1,16.2,"18:20:08",1
"20/11/16","18:40",0.0,16.9,72.9,1020.4,321.7,2.6,3.9,303.0,0.00,12.1,16.2,"18:30:56",1
"20/11/16","18:50",0.0,16.7,73.3,1020.1,311.4,2.0,4.5,330.1,0.00,11.9,15.8,"18:40:40",1
"20/11/16","19:00",0.0,16.4,74.1,1020.4,304.6,1.7,2.9,301.6,0.00,11.8,16.0,"18:51:44",1
"20/11/16","19:10",0.0,16.0,74.9,1020.6,281.7,1.0,1.3,267.6,0.00,11.6,16.1,"19:01:36",1
"20/11/16","19:20",0.0,15.0,76.0,1020.8,280.5,0.7,1.6,316.6,0.00,10.8,15.7,"19:19:52",1
"20/11/16","19:30",0.0,14.7,77.7,1020.6,329.2,1.1,1.6,332.3,0.00,10.9,15.5,"19:24:40",1
"20/11/16","19:40",0.0,14.1,79.5,1021.1,325.7,1.5,2.0,321.0,0.00,10.7,15.6,"19:32:38",1
"20/11/16","19:50",0.0,13.7,81.3,1021.1,311.6,1.2,1.7,318.4,0.00,10.6,15.5,"19:47:24",1
"20/11/16","20:00",0.0,13.6,82.7,1020.8,302.6,1.2,1.9,309.5,0.00,10.8,15.5,"19:50:24",1
"20/11/16","20:10",0.0,13.3,83.7,1020.6,298.6,1.0,1.3,319.8,0.00,10.6,15.4,"20:09:16",1
"20/11/16","20:20",0.0,13.3,84.6,1020.8,322.6,1.1,1.7,332.9,0.00,10.8,15.1,"20:14:16",1
"20/11/16","20:30",0.0,13.0,85.3,1020.8,292.6,1.0,2.0,318.2,0.00,10.6,15.1,"20:28:06",1
"20/11/16","20:40",0.0,12.6,86.0,1021.1,305.5,1.1,1.9,318.1,0.00,10.4,14.9,"20:39:44",1
"20/11/16","20:50",0.0,12.2,86.5,1020.8,311.8,1.2,1.7,309.2,0.00,10.1,14.7,"20:45:22",1
"20/11/16","21:00",0.0,12.0,87.1,1021.1,313.2,1.0,1.4,335.3,0.00,10.0,14.8,"20:52:06",1
"20/11/16","21:10",0.0,11.8,87.6,1021.1,298.4,1.2,1.9,304.5,0.00,9.9,14.7,"21:04:14",1
"20/11/16","21:20",0.0,11.5,88.0,1020.8,290.9,1.0,1.4,315.2,0.00,9.6,14.5,"21:11:16",1
"20/11/16","21:30",0.0,11.3,88.4,1021.1,304.8,1.1,1.6,309.4,0.00,9.5,14.2,"21:25:08",1
"20/11/16","21:40",0.0,11.3,89.0,1021.3,304.3,1.3,1.8,313.3,0.00,9.6,14.4,"21:30:56",1
"20/11/16","21:50",0.0,11.3,89.4,1021.3,307.9,1.3,2.2,308.6,0.00,9.7,14.1,"21:49:16",1
"20/11/16","22:00",0.0,11.3,89.7,1021.3,307.4,1.2,1.9,319.4,0.00,9.7,14.2,"21:55:24",1
"20/11/16","22:10",0.0,11.3,90.1,1021.5,309.1,1.1,2.0,323.0,0.00,9.8,14.0,"22:01:36",1
"20/11/16","22:20",0.0,11.3,90.3,1021.3,315.5,1.0,1.4,306.3,0.00,9.8,14.1,"22:19:58",1
"20/11/16","22:30",0.0,11.3,90.8,1021.3,317.5,1.2,2.5,325.6,0.00,9.9,14.0,"22:28:48",1
"20/11/16","22:40",0.0,11.6,91.1,1021.3,329.2,1.2,2.1,333.0,0.00,10.2,13.9,"22:35:24",1
"20/11/16","22:50",0.0,11.1,91.3,1021.3,292.6,1.0,1.6,252.3,0.00,9.8,13.9,"22:45:20",1
"20/11/16","23:00",0.0,10.8,91.7,1021.5,299.8,1.3,1.9,318.8,0.00,9.5,13.8,"22:53:20",1
"20/11/16","23:10",0.0,10.7,91.9,1021.3,318.4,1.2,2.1,333.2,0.00,9.5,13.8,"23:00:16",1
"20/11/16","23:20",0.0,10.6,92.3,1021.3,308.9,1.3,2.1,320.0,0.00,9.4,13.5,"23:18:56",1
"20/11/16","23:30",0.0,10.5,92.6,1021.1,311.5,1.3,1.9,299.4,0.00,9.4,13.8,"23:28:32",1
"20/11/16","23:40",0.0,10.6,92.7,1021.3,311.2,1.3,2.2,305.9,0.00,9.5,13.5,"23:35:36",1
"20/11/16","23:50",0.0,10.7,92.9,1021.5,302.7,1.3,2.2,309.5,0.00,9.6,13.5,"23:40:40",1
"20/11/16","24:00",0.0,10.8,93.2,1021.5,291.5,1.3,2.2,317.0,0.00,9.8,13.5,"23:59:12",1
